,,Stat5,,Stat1,,Stat2,,Stat3,,Stat4,,Wind1,,Wind1,
time,status,PA1M_AVG,status,PR1M_SUM,status,RH1M_AVG,status,SR1M_AVG,status,TA1M_AVG,status,W1dAve1m,status,W1sAve1m,
2001-02-24, 00:00:00,VALID,918.052,VALID,0,VALID,95.5674,VALID,0.0169808,VALID,19.8339,VALID,99,VALID,0.394531,
2001-02-24, 00:01:00,VALID,918.012,VALID,0,VALID,95.823,VALID,0.0339617,VALID,19.8277,VALID,95,VALID,0.477148,
2001-02-24, 00:02:00,VALID,917.99,VALID,0,VALID,95.8307,VALID,0.0169808,VALID,19.8083,VALID,80,VALID,0.658654,
2001-02-24, 00:03:00,VALID,917.978,VALID,0,VALID,96.1079,VALID,0.0169808,VALID,19.8242,VALID,60,VALID,0.494449,
2001-02-24, 00:04:00,VALID,917.95,VALID,0,VALID,95.8968,VALID,0,VALID,19.8314,VALID,82,VALID,0.104384,
2001-02-24, 00:05:00,VALID,917.942,VALID,0,VALID,95.7264,VALID,0.0339617,VALID,19.818,VALID,83,VALID,0.105664,
2001-02-24, 00:06:00,VALID,917.913,VALID,0,VALID,95.4911,VALID,0.0169808,VALID,19.8013,VALID,99,VALID,0.743555,
2001-02-24, 00:07:00,VALID,917.871,VALID,0,VALID,95.1008,VALID,0.0849042,VALID,19.7663,VALID,89,VALID,1.06661,
2001-02-24, 00:08:00,VALID,917.819,VALID,0,VALID,95.3792,VALID,0,VALID,19.7348,VALID,90,VALID,1.23685,
2001-02-24, 00:09:00,VALID,917.783,VALID,0,VALID,95.3576,VALID,-0.0169808,VALID,19.7191,VALID,88,VALID,1.15184,
2001-02-24, 00:10:00,VALID,917.763,VALID,0,VALID,95.5865,VALID,-0.0339617,VALID,19.7261,VALID,89,VALID,1.20503,
2001-02-24, 00:11:00,VALID,917.744,VALID,0,VALID,95.5547,VALID,-0.0169808,VALID,19.7097,VALID,90,VALID,0.945313,
2001-02-24, 00:12:00,VALID,917.713,VALID,0,VALID,95.715,VALID,-0.0339617,VALID,19.7484,VALID,87,VALID,1.12589,
2001-02-24, 00:13:00,VALID,917.713,VALID,0,VALID,95.6552,VALID,-0.0339617,VALID,19.7778,VALID,83,VALID,0.89591,
2001-02-24, 00:14:00,VALID,917.73,VALID,0,VALID,95.6107,VALID,-0.0169808,VALID,19.8354,VALID,89,VALID,1.08899,
2001-02-24, 00:15:00,VALID,917.722,VALID,0,VALID,95.1631,VALID,-0.0169808,VALID,19.8941,VALID,91,VALID,0.648037,
2001-02-24, 00:16:00,VALID,917.724,VALID,0,VALID,94.9405,VALID,-0.0169808,VALID,19.8873,VALID,91,VALID,0.398037,
2001-02-24, 00:17:00,VALID,917.684,VALID,0,VALID,94.6849,VALID,-0.0339617,VALID,19.9,VALID,100,VALID,0.5919,
2001-02-24, 00:18:00,VALID,917.649,VALID,0,VALID,94.4586,VALID,-0.0339617,VALID,19.8806,VALID,91,VALID,0.665671,
2001-02-24, 00:19:00,VALID,917.585,VALID,0,VALID,94.6112,VALID,-0.0509425,VALID,19.8712,VALID,92,VALID,0.896484,
2001-02-24, 00:20:00,VALID,917.554,VALID,0,VALID,94.6671,VALID,-0.0509425,VALID,19.8481,VALID,87,VALID,0.970881,
2001-02-24, 00:21:00,VALID,917.537,VALID,0,VALID,94.7943,VALID,0,VALID,19.8391,VALID,90,VALID,0.860008,
2001-02-24, 00:22:00,VALID,917.512,VALID,0,VALID,94.9088,VALID,0,VALID,19.7902,VALID,86,VALID,0.95841,
2001-02-24, 00:23:00,VALID,917.5,VALID,0,VALID,95.0588,VALID,0.0339617,VALID,19.7961,VALID,89,VALID,1.19046,
2001-02-24, 00:24:00,VALID,917.484,VALID,0,VALID,95.0588,VALID,0.0679233,VALID,19.7989,VALID,84,VALID,0.980469,
2001-02-24, 00:25:00,VALID,917.486,VALID,0,VALID,94.9787,VALID,0.0679233,VALID,19.8091,VALID,80,VALID,0.960938,
2001-02-24, 00:26:00,VALID,917.508,VALID,0,VALID,94.7816,VALID,0.0339617,VALID,19.818,VALID,87,VALID,0.757813,
2001-02-24, 00:27:00,VALID,917.515,VALID,0,VALID,94.6722,VALID,0.0679233,VALID,19.8182,VALID,74,VALID,0.585938,
2001-02-24, 00:28:01,VALID,917.547,VALID,0,VALID,94.6557,VALID,0.0339617,VALID,19.8118,VALID,76,VALID,0.805147,
2001-02-24, 00:29:00,VALID,917.568,VALID,0,VALID,94.5641,VALID,0.0509425,VALID,19.8083,VALID,79,VALID,0.721706,
2001-02-24, 00:30:00,VALID,917.564,VALID,0,VALID,94.4395,VALID,0.0849042,VALID,19.8247,VALID,78,VALID,0.210449,
2001-02-24, 00:31:00,VALID,917.588,VALID,0,VALID,94.3073,VALID,0.0509425,VALID,19.818,VALID,78,VALID,0,
2001-02-24, 00:32:00,VALID,917.588,VALID,0,VALID,94.2412,VALID,0.0339617,VALID,19.815,VALID,104,VALID,0.124107,
2001-02-24, 00:33:00,VALID,917.561,VALID,0,VALID,94.053,VALID,0.0679233,VALID,19.818,VALID,144,VALID,0.0202703,
2001-02-24, 00:34:00,VALID,917.537,VALID,0,VALID,93.9919,VALID,0.0169808,VALID,19.8187,VALID,232,VALID,0.505974,
2001-02-24, 00:35:00,VALID,917.556,VALID,0,VALID,93.9512,VALID,0.0169808,VALID,19.7864,VALID,241,VALID,0.777238,
2001-02-24, 00:36:00,VALID,917.563,VALID,0,VALID,94.0797,VALID,0.0509425,VALID,19.7313,VALID,249,VALID,0.81949,
2001-02-24, 00:37:00,VALID,917.593,VALID,0,VALID,94.2412,VALID,0.0679233,VALID,19.6821,VALID,250,VALID,0.698808,
2001-02-24, 00:38:00,VALID,917.65,VALID,0,VALID,94.2895,VALID,0.0169808,VALID,19.648,VALID,253,VALID,0.769643,
2001-02-24, 00:39:01,VALID,917.703,VALID,0,VALID,94.5095,VALID,0,VALID,19.6031,VALID,240,VALID,0.960515,
2001-02-24, 00:40:01,VALID,917.748,VALID,0,VALID,94.7066,VALID,0,VALID,19.5571,VALID,244,VALID,0.961627,
2001-02-24, 00:41:00,VALID,917.78,VALID,0,VALID,95.069,VALID,0,VALID,19.5086,VALID,249,VALID,0.71136,
2001-02-24, 00:42:00,VALID,917.803,VALID,0,VALID,95.2686,VALID,0,VALID,19.4736,VALID,253,VALID,0.697021,
2001-02-24, 00:43:00,VALID,917.824,VALID,0,VALID,95.6463,VALID,0,VALID,19.4383,VALID,262,VALID,0.694912,
2001-02-24, 00:44:00,VALID,917.823,VALID,0,VALID,95.9769,VALID,0,VALID,19.4406,VALID,271,VALID,0.540179,
2001-02-24, 00:45:00,VALID,917.817,VALID,0,VALID,96.1753,VALID,0,VALID,19.4671,VALID,269,VALID,0.353041,
2001-02-24, 00:46:00,VALID,917.788,VALID,0,VALID,96.3838,VALID,0,VALID,19.4994,VALID,278,VALID,0.83341,
2001-02-24, 00:47:00,VALID,917.763,VALID,0,VALID,96.5758,VALID,0,VALID,19.5673,VALID,302,VALID,0.590583,
2001-02-24, 00:48:00,VALID,917.74,VALID,0,VALID,96.5135,VALID,0,VALID,19.6421,VALID,276,VALID,0.665296,
2001-02-24, 00:49:00,VALID,917.753,VALID,0,VALID,96.305,VALID,-0.0339617,VALID,19.6905,VALID,299,VALID,0.242188,
2001-02-24, 00:50:00,VALID,917.747,VALID,0,VALID,96.0926,VALID,-0.0339617,VALID,19.7447,VALID,309,VALID,0.349107,
2001-02-24, 00:51:01,VALID,917.747,VALID,0,VALID,95.6158,VALID,-0.0169808,VALID,19.8028,VALID,316,VALID,0.121622,
2001-02-24, 00:52:01,VALID,917.748,VALID,0,VALID,94.7663,VALID,0,VALID,19.7643,VALID,316,VALID,0,
2001-02-24, 00:53:00,VALID,917.73,VALID,0,VALID,94.896,VALID,0,VALID,19.7323,VALID,316,VALID,0,
2001-02-24, 00:54:00,VALID,917.715,VALID,0,VALID,95.1351,VALID,0.0169808,VALID,19.7452,VALID,316,VALID,0,
2001-02-24, 00:55:00,VALID,917.704,VALID,0,VALID,95.205,VALID,-0.0169808,VALID,19.771,VALID,316,VALID,0,
2001-02-24, 00:56:00,VALID,917.699,VALID,0,VALID,95.041,VALID,-0.0339617,VALID,19.7611,VALID,316,VALID,0,
2001-02-24, 00:57:00,VALID,917.704,VALID,0,VALID,94.9367,VALID,-0.0169808,VALID,19.7738,VALID,316,VALID,0,
2001-02-24, 00:58:00,VALID,917.695,VALID,0,VALID,94.9596,VALID,-0.0169808,VALID,19.7902,VALID,316,VALID,0,
2001-02-24, 00:59:00,VALID,917.664,VALID,0,VALID,94.8553,VALID,0,VALID,19.78,VALID,316,VALID,0,
2001-02-24, 01:00:00,VALID,917.606,VALID,0,VALID,94.0517,VALID,0,VALID,19.7514,VALID,316,VALID,0,
2001-02-24, 01:01:00,VALID,917.544,VALID,0,VALID,93.4502,VALID,0,VALID,19.6575,VALID,316,VALID,0.0170641,
2001-02-24, 01:02:00,VALID,917.5,VALID,0,VALID,93.4833,VALID,0.0169808,VALID,19.5539,VALID,360,VALID,0.0631696,
2001-02-24, 01:03:01,VALID,917.459,VALID,0,VALID,93.8037,VALID,0,VALID,19.4634,VALID,64,VALID,0,
2001-02-24, 01:04:01,VALID,917.437,VALID,0,VALID,94.9126,VALID,0,VALID,19.4217,VALID,75,VALID,0,
2001-02-24, 01:05:00,VALID,917.407,VALID,0,VALID,95.2292,VALID,0,VALID,19.3891,VALID,79,VALID,0,
2001-02-24, 01:06:00,VALID,917.388,VALID,0,VALID,95.9095,VALID,0,VALID,19.4058,VALID,81,VALID,0,
2001-02-24, 01:07:00,VALID,917.385,VALID,0,VALID,96.1829,VALID,-0.0169808,VALID,19.4319,VALID,80,VALID,0,
2001-02-24, 01:08:00,VALID,917.374,VALID,0,VALID,96.4652,VALID,-0.0679233,VALID,19.4455,VALID,80,VALID,0,
2001-02-24, 01:09:00,VALID,917.355,VALID,0,VALID,96.4932,VALID,-0.101885,VALID,19.4684,VALID,80,VALID,0,
2001-02-24, 01:10:00,VALID,917.327,VALID,0,VALID,96.1435,VALID,-0.118866,VALID,19.4559,VALID,80,VALID,0,
2001-02-24, 01:11:00,VALID,917.294,VALID,0,VALID,95.9642,VALID,-0.101885,VALID,19.4336,VALID,89,VALID,0,
2001-02-24, 01:12:00,VALID,917.268,VALID,0,VALID,95.9171,VALID,-0.101885,VALID,19.4301,VALID,205,VALID,0,
2001-02-24, 01:13:00,VALID,917.235,VALID,0,VALID,96.0672,VALID,-0.118866,VALID,19.4142,VALID,212,VALID,0,
2001-02-24, 01:14:00,VALID,917.22,VALID,0,VALID,96.4309,VALID,-0.135847,VALID,19.4239,VALID,210,VALID,0,
2001-02-24, 01:15:01,VALID,917.229,VALID,0,VALID,96.5873,VALID,-0.118866,VALID,19.4266,VALID,210,VALID,0,
2001-02-24, 01:16:01,VALID,917.235,VALID,0,VALID,96.4843,VALID,-0.101885,VALID,19.4234,VALID,211,VALID,0,
2001-02-24, 01:17:00,VALID,917.235,VALID,0,VALID,96.3647,VALID,-0.118866,VALID,19.4144,VALID,210,VALID,0,
2001-02-24, 01:18:00,VALID,917.25,VALID,0,VALID,96.3368,VALID,-0.101885,VALID,19.3851,VALID,208,VALID,0,
2001-02-24, 01:19:00,VALID,917.258,VALID,0,VALID,96.4067,VALID,-0.101885,VALID,19.3556,VALID,206,VALID,0,
2001-02-24, 01:20:00,VALID,917.268,VALID,0,VALID,96.5097,VALID,-0.118866,VALID,19.3461,VALID,206,VALID,0,
2001-02-24, 01:21:00,VALID,917.278,VALID,0,VALID,96.4143,VALID,-0.152827,VALID,19.3464,VALID,218,VALID,0,
2001-02-24, 01:22:00,VALID,917.295,VALID,0,VALID,96.6381,VALID,-0.101885,VALID,19.3233,VALID,223,VALID,0.482767,
2001-02-24, 01:23:00,VALID,917.31,VALID,0,VALID,97.0031,VALID,-0.0509425,VALID,19.3322,VALID,224,VALID,0.923353,
2001-02-24, 01:24:00,VALID,917.32,VALID,0,VALID,97.1391,VALID,0,VALID,19.3315,VALID,227,VALID,0.990954,
2001-02-24, 01:25:00,VALID,917.356,VALID,0,VALID,97.2498,VALID,0.0509425,VALID,19.3382,VALID,234,VALID,1.03536,
2001-02-24, 01:26:00,VALID,917.382,VALID,0,VALID,97.3896,VALID,0.0169808,VALID,19.3384,VALID,225,VALID,0.813616,
2001-02-24, 01:27:01,VALID,917.399,VALID,0,VALID,97.466,VALID,0.0169808,VALID,19.3245,VALID,222,VALID,0.815456,
2001-02-24, 01:28:01,VALID,917.406,VALID,0,VALID,97.5168,VALID,0.0339617,VALID,19.3056,VALID,214,VALID,0.968061,
2001-02-24, 01:29:00,VALID,917.418,VALID,0,VALID,97.663,VALID,0.0509425,VALID,19.3094,VALID,220,VALID,1.02618,
2001-02-24, 01:30:00,VALID,917.411,VALID,0,VALID,97.8131,VALID,0.0169808,VALID,19.2957,VALID,214,VALID,0.978516,
2001-02-24, 01:31:00,VALID,917.404,VALID,0,VALID,97.9161,VALID,0,VALID,19.286,VALID,214,VALID,0.488982,
2001-02-24, 01:32:00,VALID,917.383,VALID,0,VALID,98.0331,VALID,0,VALID,19.2962,VALID,202,VALID,0.405357,
2001-02-24, 01:33:00,VALID,917.349,VALID,0,VALID,98.1259,VALID,0,VALID,19.2925,VALID,211,VALID,0.293074,
2001-02-24, 01:34:00,VALID,917.328,VALID,0,VALID,98.2009,VALID,0,VALID,19.3056,VALID,200,VALID,0.406939,
2001-02-24, 01:35:00,VALID,917.269,VALID,0,VALID,98.2251,VALID,0.0169808,VALID,19.3218,VALID,196,VALID,0.42462,
2001-02-24, 01:36:00,VALID,917.209,VALID,0,VALID,98.2607,VALID,0.0169808,VALID,19.3186,VALID,188,VALID,0.516653,
2001-02-24, 01:37:00,VALID,917.149,VALID,0,VALID,98.2543,VALID,0.0339617,VALID,19.3086,VALID,157,VALID,0.586554,
2001-02-24, 01:38:00,VALID,917.108,VALID,0,VALID,98.1946,VALID,0.0169808,VALID,19.3086,VALID,138,VALID,0.500893,
2001-02-24, 01:39:01,VALID,917.077,VALID,0,VALID,98.1691,VALID,0.0169808,VALID,19.3186,VALID,130,VALID,0.458404,
2001-02-24, 01:40:01,VALID,917.057,VALID,0,VALID,98.1513,VALID,0,VALID,19.332,VALID,131,VALID,0.429917,
2001-02-24, 01:41:00,VALID,917.045,VALID,0,VALID,98.1208,VALID,0.0339617,VALID,19.3476,VALID,131,VALID,0.456081,
2001-02-24, 01:42:00,VALID,917.035,VALID,0,VALID,98.0636,VALID,0,VALID,19.3707,VALID,131,VALID,0.420166,
2001-02-24, 01:43:00,VALID,917.036,VALID,0,VALID,97.9949,VALID,0,VALID,19.403,VALID,131,VALID,0.379006,
2001-02-24, 01:44:00,VALID,917.066,VALID,0,VALID,97.9199,VALID,0.0169808,VALID,19.4058,VALID,147,VALID,0.414063,
2001-02-24, 01:45:00,VALID,917.088,VALID,0,VALID,97.7927,VALID,0.0169808,VALID,19.4058,VALID,192,VALID,0.492821,
2001-02-24, 01:46:00,VALID,917.096,VALID,0,VALID,97.7406,VALID,0,VALID,19.4125,VALID,223,VALID,0.578355,
2001-02-24, 01:47:00,VALID,917.115,VALID,0,VALID,97.6936,VALID,0,VALID,19.409,VALID,226,VALID,0.728463,
2001-02-24, 01:48:00,VALID,917.108,VALID,0,VALID,97.6808,VALID,0,VALID,19.4321,VALID,223,VALID,0.530428,
2001-02-24, 01:49:00,VALID,917.096,VALID,0,VALID,97.6173,VALID,0,VALID,19.4254,VALID,205,VALID,0.222005,
2001-02-24, 01:50:00,VALID,917.072,VALID,0,VALID,97.4418,VALID,0.0169808,VALID,19.4254,VALID,180,VALID,0.358259,
2001-02-24, 01:51:01,VALID,917.033,VALID,0,VALID,97.1773,VALID,0,VALID,19.4063,VALID,151,VALID,0.649916,
2001-02-24, 01:52:01,VALID,917.003,VALID,0,VALID,96.8925,VALID,0.0339617,VALID,19.377,VALID,147,VALID,0.474954,
2001-02-24, 01:53:00,VALID,916.993,VALID,0,VALID,96.7386,VALID,0,VALID,19.3449,VALID,147,VALID,0.461149,
2001-02-24, 01:54:00,VALID,916.973,VALID,0,VALID,96.7475,VALID,0,VALID,19.3285,VALID,147,VALID,0.380127,
2001-02-24, 01:55:01,VALID,916.952,VALID,0,VALID,96.8263,VALID,0.0169808,VALID,19.3287,VALID,147,VALID,0.11859,
2001-02-24, 01:56:01,VALID,916.943,VALID,0,VALID,96.6877,VALID,0.0169808,VALID,19.3059,VALID,147,VALID,0,
2001-02-24, 01:57:01,VALID,916.899,VALID,0,VALID,96.6788,VALID,0,VALID,19.2964,VALID,147,VALID,0,
2001-02-24, 01:58:01,VALID,916.898,VALID,0,VALID,96.7767,VALID,0.0169808,VALID,19.2796,VALID,147,VALID,0,
2001-02-24, 01:59:00,VALID,916.892,VALID,0,VALID,96.9433,VALID,0.0339617,VALID,19.3059,VALID,147,VALID,0,
2001-02-24, 02:00:00,VALID,916.908,VALID,0,VALID,97.087,VALID,0.0169808,VALID,19.3384,VALID,147,VALID,0,
2001-02-24, 02:01:01,VALID,916.948,VALID,0,VALID,97.1277,VALID,0,VALID,19.3606,VALID,147,VALID,0,
2001-02-24, 02:02:00,VALID,916.976,VALID,0,VALID,97.1239,VALID,-0.0169808,VALID,19.3802,VALID,147,VALID,0,
2001-02-24, 02:03:01,VALID,916.994,VALID,0,VALID,97.087,VALID,0,VALID,19.3966,VALID,147,VALID,0,
2001-02-24, 02:04:01,VALID,917.016,VALID,0,VALID,97.0336,VALID,0,VALID,19.4058,VALID,147,VALID,0,
2001-02-24, 02:05:01,VALID,917.021,VALID,0,VALID,96.8772,VALID,0,VALID,19.4023,VALID,147,VALID,0,
2001-02-24, 02:06:01,VALID,917.027,VALID,0,VALID,96.8034,VALID,0,VALID,19.4085,VALID,147,VALID,0,
2001-02-24, 02:07:01,VALID,917.023,VALID,0,VALID,96.7895,VALID,0.0169808,VALID,19.4284,VALID,147,VALID,0,
2001-02-24, 02:08:01,VALID,917.008,VALID,0,VALID,96.8683,VALID,0,VALID,19.4642,VALID,147,VALID,0,
2001-02-24, 02:09:01,VALID,917.004,VALID,0,VALID,96.8187,VALID,0,VALID,19.4898,VALID,147,VALID,0,
2001-02-24, 02:10:01,VALID,916.987,VALID,0,VALID,96.5682,VALID,0.0169808,VALID,19.493,VALID,174,VALID,0.117417,
2001-02-24, 02:11:01,VALID,916.975,VALID,0,VALID,96.3775,VALID,0,VALID,19.4736,VALID,192,VALID,0.278716,
2001-02-24, 02:12:01,VALID,916.951,VALID,0,VALID,96.3609,VALID,0.0169808,VALID,19.4706,VALID,209,VALID,0.309416,
2001-02-24, 02:13:01,VALID,916.937,VALID,0,VALID,96.5631,VALID,0.0339617,VALID,19.4704,VALID,218,VALID,0.616365,
2001-02-24, 02:14:01,VALID,916.928,VALID,0,VALID,96.6114,VALID,0,VALID,19.4736,VALID,198,VALID,0.446875,
2001-02-24, 02:15:01,VALID,916.905,VALID,0,VALID,96.5924,VALID,0,VALID,19.4739,VALID,194,VALID,0.812711,
2001-02-24, 02:16:01,VALID,916.893,VALID,0,VALID,96.6572,VALID,0.0169808,VALID,19.448,VALID,198,VALID,0.508272,
2001-02-24, 02:17:01,VALID,916.891,VALID,0,VALID,96.6114,VALID,0,VALID,19.4249,VALID,189,VALID,0.388091,
2001-02-24, 02:18:01,VALID,916.894,VALID,0,VALID,96.633,VALID,0.0169808,VALID,19.4125,VALID,189,VALID,0.11499,
2001-02-24, 02:19:01,VALID,916.888,VALID,0,VALID,96.7475,VALID,0.0169808,VALID,19.3961,VALID,192,VALID,0.110377,
2001-02-24, 02:20:01,VALID,916.86,VALID,0,VALID,96.8823,VALID,0,VALID,19.4028,VALID,211,VALID,0.559598,
2001-02-24, 02:21:01,VALID,916.824,VALID,0,VALID,97.1074,VALID,0,VALID,19.4189,VALID,224,VALID,0.923564,
2001-02-24, 02:22:01,VALID,916.788,VALID,0,VALID,97.3451,VALID,0,VALID,19.442,VALID,223,VALID,0.931985,
2001-02-24, 02:23:01,VALID,916.752,VALID,0,VALID,97.4927,VALID,0,VALID,19.4709,VALID,213,VALID,0.738176,
2001-02-24, 02:24:01,VALID,916.724,VALID,0,VALID,97.4469,VALID,0,VALID,19.4773,VALID,206,VALID,0.349095,
2001-02-24, 02:25:00,VALID,916.698,VALID,0,VALID,97.4405,VALID,0,VALID,19.4806,VALID,167,VALID,0.756168,
2001-02-24, 02:26:00,VALID,916.698,VALID,0,VALID,97.1315,VALID,0,VALID,19.4386,VALID,150,VALID,0.611607,
2001-02-24, 02:27:00,VALID,916.689,VALID,0,VALID,97.0921,VALID,0,VALID,19.4187,VALID,148,VALID,0.715583,
2001-02-24, 02:28:00,VALID,916.671,VALID,0,VALID,97.1353,VALID,0,VALID,19.3963,VALID,153,VALID,0.638787,
2001-02-24, 02:29:00,VALID,916.647,VALID,0,VALID,97.2638,VALID,0,VALID,19.3899,VALID,157,VALID,0.590794,
2001-02-24, 02:30:00,VALID,916.619,VALID,0,VALID,97.3642,VALID,0,VALID,19.3894,VALID,159,VALID,0.503906,
2001-02-24, 02:31:00,VALID,916.584,VALID,0,VALID,97.4367,VALID,0.0169808,VALID,19.3896,VALID,159,VALID,0.46855,
2001-02-24, 02:32:00,VALID,916.546,VALID,0,VALID,97.3909,VALID,0,VALID,19.3963,VALID,159,VALID,0.350446,
2001-02-24, 02:33:00,VALID,916.532,VALID,0,VALID,97.424,VALID,0.0339617,VALID,19.376,VALID,159,VALID,0.267736,
2001-02-24, 02:34:00,VALID,916.523,VALID,0,VALID,97.4532,VALID,0,VALID,19.3929,VALID,161,VALID,0.424862,
2001-02-24, 02:35:00,VALID,916.516,VALID,0,VALID,97.5969,VALID,0.0169808,VALID,19.4093,VALID,173,VALID,0.580659,
2001-02-24, 02:36:00,VALID,916.505,VALID,0,VALID,97.6999,VALID,0,VALID,19.4252,VALID,181,VALID,0.449219,
2001-02-24, 02:37:00,VALID,916.51,VALID,0,VALID,97.7686,VALID,0,VALID,19.4319,VALID,184,VALID,0.254317,
2001-02-24, 02:38:00,VALID,916.499,VALID,0,VALID,97.7648,VALID,0,VALID,19.4575,VALID,184,VALID,0,
2001-02-24, 02:39:00,VALID,916.503,VALID,0,VALID,97.7037,VALID,0,VALID,19.4545,VALID,184,VALID,0,
2001-02-24, 02:40:00,VALID,916.493,VALID,0,VALID,97.7139,VALID,0,VALID,19.4607,VALID,184,VALID,0,
2001-02-24, 02:41:00,VALID,916.498,VALID,0,VALID,97.7266,VALID,0.0339617,VALID,19.4768,VALID,189,VALID,0.0929054,
2001-02-24, 02:42:00,VALID,916.51,VALID,0,VALID,97.7165,VALID,0.0339617,VALID,19.4895,VALID,245,VALID,0.418701,
2001-02-24, 02:43:00,VALID,916.492,VALID,0,VALID,97.7139,VALID,-0.0169808,VALID,19.4935,VALID,241,VALID,0.504207,
2001-02-24, 02:44:00,VALID,916.493,VALID,0,VALID,97.7152,VALID,0,VALID,19.493,VALID,243,VALID,0.552902,
2001-02-24, 02:45:00,VALID,916.476,VALID,0,VALID,97.6478,VALID,0,VALID,19.4833,VALID,241,VALID,0.80511,
2001-02-24, 02:46:00,VALID,916.492,VALID,0,VALID,97.6745,VALID,0,VALID,19.4806,VALID,260,VALID,0.618796,
2001-02-24, 02:47:00,VALID,916.497,VALID,0,VALID,97.7139,VALID,0.0169808,VALID,19.4704,VALID,243,VALID,0.205236,
2001-02-24, 02:48:00,VALID,916.517,VALID,0,VALID,97.7495,VALID,0,VALID,19.4639,VALID,238,VALID,0.205592,
2001-02-24, 02:49:00,VALID,916.541,VALID,0,VALID,97.7902,VALID,-0.0169808,VALID,19.4612,VALID,240,VALID,0,
2001-02-24, 02:50:00,VALID,916.558,VALID,0,VALID,97.836,VALID,0,VALID,19.4639,VALID,240,VALID,0,
2001-02-24, 02:51:00,VALID,916.565,VALID,0,VALID,97.8919,VALID,0,VALID,19.4736,VALID,240,VALID,0,
2001-02-24, 02:52:00,VALID,916.564,VALID,0,VALID,97.9301,VALID,-0.0169808,VALID,19.4835,VALID,240,VALID,0,
2001-02-24, 02:53:00,VALID,916.547,VALID,0,VALID,97.986,VALID,0,VALID,19.5062,VALID,240,VALID,0,
2001-02-24, 02:54:00,VALID,916.548,VALID,0,VALID,98.0038,VALID,0,VALID,19.5126,VALID,240,VALID,0,
2001-02-24, 02:55:00,VALID,916.543,VALID,0,VALID,97.9809,VALID,0,VALID,19.5094,VALID,240,VALID,0,
2001-02-24, 02:56:00,VALID,916.529,VALID,0,VALID,97.9492,VALID,0,VALID,19.5101,VALID,240,VALID,0,
2001-02-24, 02:57:00,VALID,916.514,VALID,0,VALID,97.9237,VALID,0,VALID,19.493,VALID,240,VALID,0,
2001-02-24, 02:58:00,VALID,916.508,VALID,0,VALID,97.9136,VALID,0.0169808,VALID,19.5029,VALID,240,VALID,0,
2001-02-24, 02:59:00,VALID,916.491,VALID,0,VALID,97.7508,VALID,0,VALID,19.4773,VALID,237,VALID,0,
2001-02-24, 03:00:00,VALID,916.479,VALID,0,VALID,97.6071,VALID,0,VALID,19.4378,VALID,228,VALID,0,
2001-02-24, 03:01:00,VALID,916.47,VALID,0,VALID,97.4621,VALID,0.0169808,VALID,19.4122,VALID,188,VALID,0,
2001-02-24, 03:02:00,VALID,916.45,VALID,0,VALID,97.4825,VALID,0.0169808,VALID,19.3864,VALID,150,VALID,0.340625,
2001-02-24, 03:03:00,VALID,916.417,VALID,0,VALID,97.6313,VALID,0,VALID,19.4127,VALID,144,VALID,0.560177,
2001-02-24, 03:04:00,VALID,916.399,VALID,0,VALID,97.6402,VALID,0,VALID,19.4122,VALID,143,VALID,0.380974,
2001-02-24, 03:05:00,VALID,916.367,VALID,0,VALID,97.56,VALID,0.0169808,VALID,19.3732,VALID,147,VALID,0.607052,
2001-02-24, 03:06:00,VALID,916.343,VALID,0,VALID,97.7495,VALID,0.0169808,VALID,19.3829,VALID,168,VALID,0.770508,
2001-02-24, 03:07:00,VALID,916.295,VALID,0,VALID,97.8729,VALID,0,VALID,19.3993,VALID,175,VALID,1.17528,
2001-02-24, 03:08:00,VALID,916.246,VALID,0,VALID,98.0051,VALID,0,VALID,19.4093,VALID,174,VALID,1.32656,
2001-02-24, 03:09:00,VALID,916.208,VALID,0,VALID,97.9898,VALID,0,VALID,19.4028,VALID,177,VALID,1.10494,
2001-02-24, 03:10:00,VALID,915.759,VALID,0,VALID,97.967,VALID,0,VALID,19.3869,VALID,178,VALID,0.89568,
2001-02-24, 03:11:00,VALID,916.199,VALID,0,VALID,97.9911,VALID,-0.0169808,VALID,19.364,VALID,177,VALID,1.04117,
2001-02-24, 03:12:00,VALID,916.205,VALID,0,VALID,97.9682,VALID,0,VALID,19.3576,VALID,172,VALID,0.949836,
2001-02-24, 03:13:00,VALID,916.205,VALID,0,VALID,97.9364,VALID,0,VALID,19.3213,VALID,181,VALID,0.812911,
2001-02-24, 03:14:00,VALID,916.173,VALID,0,VALID,97.9708,VALID,0,VALID,19.3151,VALID,191,VALID,0.903795,
2001-02-24, 03:15:00,VALID,916.149,VALID,0,VALID,98.0407,VALID,-0.0169808,VALID,19.3292,VALID,195,VALID,0.883024,
2001-02-24, 03:16:00,VALID,916.135,VALID,0,VALID,98.1386,VALID,-0.0339617,VALID,19.3317,VALID,196,VALID,0.950138,
2001-02-24, 03:17:00,VALID,916.141,VALID,0,VALID,98.1755,VALID,-0.0169808,VALID,19.3608,VALID,205,VALID,0.682644,
2001-02-24, 03:18:00,VALID,916.183,VALID,0,VALID,98.2009,VALID,0,VALID,19.3675,VALID,229,VALID,0.759033,
2001-02-24, 03:19:00,VALID,916.244,VALID,0,VALID,98.2556,VALID,-0.0169808,VALID,19.3834,VALID,238,VALID,1.22796,
2001-02-24, 03:20:00,VALID,916.313,VALID,0,VALID,98.2632,VALID,0.0169808,VALID,19.403,VALID,238,VALID,0.915848,
2001-02-24, 03:21:00,VALID,916.349,VALID,0,VALID,98.2569,VALID,0,VALID,19.3834,VALID,233,VALID,0.617399,
2001-02-24, 03:22:00,VALID,916.365,VALID,0,VALID,98.323,VALID,0.0169808,VALID,19.3936,VALID,228,VALID,0.151425,
2001-02-24, 03:23:00,VALID,916.328,VALID,0,VALID,98.3039,VALID,-0.0169808,VALID,19.3869,VALID,184,VALID,0.755068,
2001-02-24, 03:24:00,VALID,916.33,VALID,0,VALID,98.3281,VALID,-0.0509425,VALID,19.3737,VALID,170,VALID,0.50185,
2001-02-24, 03:25:00,VALID,916.349,VALID,0,VALID,98.3866,VALID,-0.0509425,VALID,19.3901,VALID,128,VALID,0.315378,
2001-02-24, 03:26:00,VALID,916.389,VALID,0,VALID,98.4031,VALID,-0.0339617,VALID,19.3869,VALID,108,VALID,0.354911,
2001-02-24, 03:27:00,VALID,916.426,VALID,0,VALID,98.3968,VALID,-0.0339617,VALID,19.3837,VALID,67,VALID,0.38598,
2001-02-24, 03:28:00,VALID,916.441,VALID,0,VALID,98.4133,VALID,0,VALID,19.374,VALID,9,VALID,0.517923,
2001-02-24, 03:29:00,VALID,916.405,VALID,0,VALID,98.4171,VALID,0,VALID,19.3804,VALID,9,VALID,0.111698,
2001-02-24, 03:30:00,VALID,916.37,VALID,0,VALID,98.4095,VALID,-0.0169808,VALID,19.3737,VALID,9,VALID,0,
2001-02-24, 03:31:00,VALID,916.345,VALID,0,VALID,98.4273,VALID,0,VALID,19.3804,VALID,117,VALID,0,
2001-02-24, 03:32:00,VALID,916.354,VALID,0,VALID,98.4336,VALID,-0.0169808,VALID,19.3901,VALID,128,VALID,0,
2001-02-24, 03:33:00,VALID,916.35,VALID,0,VALID,98.44,VALID,-0.0169808,VALID,19.3936,VALID,128,VALID,0,
2001-02-24, 03:34:00,VALID,916.36,VALID,0,VALID,98.4502,VALID,-0.0169808,VALID,19.4256,VALID,114,VALID,0.349724,
2001-02-24, 03:35:00,VALID,916.352,VALID,0,VALID,98.4349,VALID,-0.0169808,VALID,19.4393,VALID,106,VALID,0.666385,
2001-02-24, 03:36:00,VALID,916.335,VALID,0,VALID,98.4082,VALID,-0.0679233,VALID,19.4321,VALID,100,VALID,0.817434,
2001-02-24, 03:37:00,VALID,916.334,VALID,0,VALID,98.3624,VALID,0,VALID,19.4353,VALID,99,VALID,0.719161,
2001-02-24, 03:38:00,VALID,916.349,VALID,0,VALID,98.2772,VALID,-0.0169808,VALID,19.4229,VALID,94,VALID,0.80558,
2001-02-24, 03:39:00,VALID,916.364,VALID,0,VALID,98.2035,VALID,-0.0339617,VALID,19.4028,VALID,86,VALID,0.704603,